Location: Ammerl�gen
(47.2167°N, 9.6000°E)
Time: 03:51:23
(UTC+00:00)

USA 281 - Pass Details

Date: 21 April 2021
Orbit: 1078 x 1081 km, 106.0° (Epoch: 14 May)

Event Time Altitude Azimuth Distance (km) Brightness Sun altitude
Exits shadow 22:47:20 35° 88° (E) 1,683 4.1 -30.1°
Maximum altitude 22:49:09 42° 53° (NE) 1,507 4.1 -30.2°
Drops below altitude 10° 22:55:13 10° 345° (NNW) 2,930 6.4 -30.3°
Sets 22:57:52 0° 339° (NNW) 3,890 7.2 -30.4°
